Powrót do katalogu

FENGYUN 1C DEB

AktywnySSO
NORAD 32221·DEBRIS·🇨🇳 China

Wystrzelony May 10, 1999 z Taiyuan Satellite Launch Center

Loading…

Następne Przeloty (najbliższe 24 godziny)

TLE

ŚwieżeSource: Space-Track

Epoka: Sep 13, 2026, 10:10 UTC

1 32221U 99025CVT 26256.42426566  .00000492  00000-0  10038-3 0  9991
2 32221  98.6015  60.6876 0144853  19.8850 340.7914 14.59458667 11937

Śledź FENGYUN 1C DEB w czasie rzeczywistym z AllMySat

Download on the App Store